SL-8 DEB, 13517

Orbit data source: Space-Track

SL-8 DEB, 13517 is space debris in LEO originally from a launch on Mon, 15 Mar 1965 UTC launched from the Tyuratam Missile And Space Complex (TTMTR). Debris objects in space refer to the collection of defunct objects orbiting the Earth. Examples of debris include non-operational satellites, rocket bodies, and fragments generated from explosions, collisions, or faulty payload assembly.

Loading next visibility...
Identifier
13517, 1965-020FF
Orbit
LEO
Country
Flag of CISCIS
Related business
Manufacturer
Unknown
Mission
Spacecraft
Bus & Motor
Unknown
Mass
Unknown
Launch date (UTC)
1965-03-15 (61 years ago)
Launch vehicle
Unknown
Launch site
Tyuratam Missile And Space Complex (TTMTR)
Object type
Payload
Rocket body
Debris
Shape & HBR
Unknown shape, 0.1 m
Radar Cross Section
Small (<0.1 m²)

Expand to show TLE details & history
Last TLE update: 10 hours ago

TLE from 10 hours ago
0 SL-8 DEB
1 13517U 65020FF  26127.27670016  .00001618  00000-0  13123-2 0  9995
2 13517  55.5670  87.5028 0525097  63.8842  72.7144 13.43884599130571
Epoch: 2026-05-07T06:38Z
TLE epoch observation values (Epoch: 2026-05-07T06:38:26.893Z)
Latitude
30.26171°
Longitude
-80.68239°
Altitude
999.415 km
Speed
7.403 km/s
True Right ascension
16h 16m 13s
True Declination
30° 07' 02"
Sunlit
Object was in full shadow at epoch
Visualization orbit readout
Latitude
Unknown
Longitude
Unknown
Altitude
Unknown
Speed
Unknown
Apparent Right ascension
Unknown
Apparent Declination
Unknown
Sunlit
N/A
Visualization observer readout
Local Sidereal Time
00:16:06
Azimuth
Unknown
Elevation
Unknown
Doppler factor
Unknown
Orbital elements
Apogee altitude
1,487.125 km
Perigee altitude
702.33 km
Semi-major axis
7,472.864 km
Eccentricity
0.05251
Inclination
55.567°
RAAN
87.5028°
Arg. of periapsis
63.8842°
True anomaly
78.56379°
Mean anomaly
72.7144°
Eccentric anomaly
75.62884°
Mean motion
3.35979 °/min
Orbital period
107.15 mins
BSTAR
0.0013123
Loading maneuver chart data...
Computing Atmospheric mass density...

Documentation

Showing up to 5 results
|